| time (UTC) | temp C | wind direction | speed KPH | gust KPH | rain 1hr cm | rain 24hr cm | rain mn cm | humidity % | barometer mb |
| 20260506092229 | 13 | 3 | 1.6 | 3.2 | 0.00 | 0.00 | 0.00 | 77 | 1006.4 |
| 20260506091726 | 13 | 15 | 0.0 | 0.0 | 0.00 | 0.00 | 0.00 | 77 | 1006.4 |
| 20260506091224 | 13 | 1 | 1.6 | 1.6 | 0.00 | 0.00 | 0.00 | 77 | 1006.4 |
| 20260506090721 | 13 | 5 | 1.6 | 1.6 | 0.00 | 0.00 | 0.00 | 77 | 1006.4 |
| 20260506090218 | 13 | 10 | 0.0 | 0.0 | 0.00 | 0.00 | 0.00 | 77 | 1006.1 |
| 20260506085715 | 13 | 3 | 1.6 | 1.6 | 0.00 | 0.00 | 0.00 | 77 | 1006.4 |
| 20260506085211 | 13 | 341 | 4.8 | 8.0 | 0.00 | 0.00 | 0.00 | 77 | 1006.3 |
| 20260506084708 | 13 | 337 | 6.4 | 11.3 | 0.00 | 0.00 | 0.00 | 77 | 1006.2 |
| 20260506084204 | 13 | 11 | 4.8 | 4.8 | 0.00 | 0.00 | 0.00 | 77 | 1006.1 |
| 20260506083701 | 14 | 18 | 3.2 | 4.8 | 0.00 | 0.00 | 0.00 | 77 | 1006.1 |
| 20260506083159 | 14 | 1 | 1.6 | 3.2 | 0.00 | 0.00 | 0.00 | 77 | 1006.1 |
| 20260506082656 | 14 | 25 | 0.0 | 1.6 | 0.00 | 0.00 | 0.00 | 77 | 1006.0 |
| 20260506082150 | 14 | 18 | 1.6 | 1.6 | 0.00 | 0.00 | 0.00 | 77 | 1006.2 |
| 20260506081649 | 14 | 4 | 3.2 | 3.2 | 0.00 | 0.00 | 0.00 | 77 | 1006.0 |
| 20260506081146 | 14 | 26 | 0.0 | 1.6 | 0.00 | 0.00 | 0.00 | 77 | 1006.0 |
| 20260506080644 | 14 | 42 | 0.0 | 0.0 | 0.00 | 0.00 | 0.00 | 77 | 1005.8 |
| 20260506080140 | 14 | 38 | 0.0 | 0.0 | 0.00 | 0.00 | 0.00 | 78 | 1005.9 |
| 20260506073124 | 14 | 26 | 0.0 | 1.6 | 0.00 | 0.00 | 0.00 | 77 | 1005.7 |
| 20260506072620 | 14 | 60 | 1.6 | 1.6 | 0.00 | 0.00 | 0.00 | 78 | 1006.0 |
| 20260506072119 | 14 | 12 | 1.6 | 1.6 | 0.00 | 0.00 | 0.00 | 78 | 1005.8 |
| 20260506071616 | 14 | 6 | 4.8 | 8.0 | 0.00 | 0.00 | 0.00 | 78 | 1006.0 |
| 20260506071114 | 14 | 22 | 1.6 | 3.2 | 0.00 | 0.00 | 0.00 | 78 | 1006.2 |
| 20260506070610 | 14 | 36 | 0.0 | 1.6 | 0.00 | 0.00 | 0.00 | 78 | 1006.2 |
| 20260506070108 | 14 | 37 | 1.6 | 1.6 | 0.00 | 0.00 | 0.00 | 79 | 1006.4 |
| 20260506062045 | 15 | 325 | 6.4 | 11.3 | 0.00 | 0.00 | 0.00 | 78 | 1006.5 |
| 20260506061540 | 15 | 325 | 3.2 | 4.8 | 0.00 | 0.00 | 0.00 | 78 | 1006.6 |
| 20260506061038 | 15 | 357 | 3.2 | 4.8 | 0.00 | 0.00 | 0.00 | 78 | 1006.6 |
| 20260506060537 | 15 | 23 | 8.0 | 9.7 | 0.00 | 0.00 | 0.00 | 78 | 1006.5 |
| 20260506051005 | 15 | 346 | 3.2 | 4.8 | 0.00 | 0.00 | 0.00 | 80 | 1006.4 |
| 20260506050503 | 16 | 56 | 3.2 | 4.8 | 0.00 | 0.00 | 0.00 | 80 | 1006.6 |
| 20260506044953 | 16 | 13 | 4.8 | 8.0 | 0.00 | 0.00 | 0.00 | 80 | 1006.1 |
| 20260506044452 | 16 | 33 | 1.6 | 1.6 | 0.00 | 0.00 | 0.00 | 80 | 1006.0 |
| 20260506043948 | 16 | 298 | 4.8 | 8.0 | 0.00 | 0.00 | 0.00 | 79 | 1006.1 |
| 20260506043445 | 16 | 49 | 4.8 | 4.8 | 0.00 | 0.00 | 0.00 | 79 | 1006.0 |
| 20260506042943 | 16 | 25 | 3.2 | 3.2 | 0.00 | 0.00 | 0.00 | 79 | 1005.8 |
| 20260506042442 | 17 | 331 | 8.0 | 8.0 | 0.00 | 0.00 | 0.00 | 78 | 1005.7 |
| 20260506041940 | 17 | 52 | 4.8 | 9.7 | 0.00 | 0.00 | 0.00 | 78 | 1005.8 |
| 20260506041437 | 17 | 6 | 3.2 | 3.2 | 0.00 | 0.00 | 0.00 | 78 | 1005.8 |
| 20260506040935 | 17 | 47 | 1.6 | 4.8 | 0.00 | 0.00 | 0.00 | 78 | 1005.7 |
| 20260506040432 | 17 | 42 | 4.8 | 4.8 | 0.00 | 0.00 | 0.00 | 79 | 1005.7 |
| 20260506035928 | 17 | 16 | 4.8 | 4.8 | 0.00 | 0.00 | 0.00 | 79 | 1005.6 |
| 20260506035426 | 17 | 7 | 4.8 | 4.8 | 0.00 | 0.00 | 0.00 | 80 | 1005.7 |
| 20260506034922 | 17 | 330 | 9.7 | 14.5 | 0.00 | 0.00 | 0.00 | 79 | 1005.5 |
| 20260506034419 | 17 | 8 | 4.8 | 12.9 | 0.00 | 0.00 | 0.00 | 79 | 1005.5 |
| 20260506033916 | 18 | 345 | 4.8 | 8.0 | 0.00 | 0.00 | 0.00 | 79 | 1005.4 |
| 20260506033414 | 18 | 51 | 1.6 | 3.2 | 0.00 | 0.00 | 0.00 | 79 | 1005.3 |
| 20260506032910 | 18 | 5 | 4.8 | 4.8 | 0.00 | 0.00 | 0.00 | 78 | 1005.3 |
| 20260506032407 | 18 | 14 | 1.6 | 1.6 | 0.00 | 0.00 | 0.00 | 78 | 1005.6 |
| 20260506031904 | 18 | 353 | 3.2 | 3.2 | 0.00 | 0.00 | 0.00 | 78 | 1005.5 |
| 20260506031401 | 19 | 37 | 1.6 | 3.2 | 0.00 | 0.00 | 0.00 | 78 | 1005.4 |
| 20260506030859 | 19 | 41 | 1.6 | 1.6 | 0.00 | 0.00 | 0.00 | 78 | 1005.2 |
| 20260506030357 | 20 | 49 | 0.0 | 1.6 | 0.00 | 0.00 | 0.00 | 78 | 1005.1 |
| 20260506025853 | 20 | 0 | 4.8 | 4.8 | 0.00 | 0.00 | 0.00 | 77 | 1005.4 |
| 20260506025350 | 20 | 34 | 3.2 | 8.0 | 0.00 | 0.00 | 0.00 | 77 | 1005.1 |
| 20260506024847 | 20 | 346 | 3.2 | 4.8 | 0.00 | 0.00 | 0.00 | 77 | 1005.0 |
| 20260506024344 | 20 | 325 | 3.2 | 4.8 | 0.00 | 0.00 | 0.00 | 76 | 1004.9 |
| 20260506023840 | 20 | 50 | 1.6 | 3.2 | 0.00 | 0.00 | 0.00 | 76 | 1004.9 |
| 20260506023337 | 20 | 2 | 4.8 | 8.0 | 0.00 | 0.00 | 0.00 | 76 | 1004.5 |
| 20260506022833 | 20 | 56 | 0.0 | 0.0 | 0.00 | 0.00 | 0.00 | 76 | 1004.5 |
| 20260506022331 | 20 | 5 | 1.6 | 1.6 | 0.00 | 0.00 | 0.00 | 76 | 1004.4 |
| 20260506021829 | 21 | 35 | 4.8 | 9.7 | 0.00 | 0.00 | 0.00 | 76 | 1004.0 |
| 20260506021326 | 21 | 18 | 4.8 | 9.7 | 0.00 | 0.00 | 0.00 | 76 | 1004.2 |
| 20260506020822 | 21 | 32 | 1.6 | 4.8 | 0.00 | 0.00 | 0.00 | 76 | 1003.8 |
| 20260506020320 | 21 | 10 | 3.2 | 4.8 | 0.00 | 0.00 | 0.00 | 75 | 1003.7 |
| 20260506015818 | 22 | 341 | 4.8 | 9.7 | 0.00 | 0.00 | 0.00 | 74 | 1003.7 |
| 20260506015315 | 22 | 13 | 3.2 | 3.2 | 0.00 | 0.00 | 0.00 | 72 | 1003.7 |
| 20260506014812 | 22 | 10 | 0.0 | 1.6 | 0.00 | 0.00 | 0.00 | 72 | 1003.6 |
| 20260506014309 | 22 | 49 | 0.0 | 1.6 | 0.00 | 0.00 | 0.00 | 72 | 1003.6 |
| 20260506013805 | 22 | 47 | 1.6 | 3.2 | 0.00 | 0.00 | 0.00 | 71 | 1003.2 |
| 20260506013303 | 22 | 48 | 0.0 | 0.0 | 0.00 | 0.00 | 0.00 | 71 | 1003.4 |
| 20260506012759 | 22 | 33 | 3.2 | 4.8 | 0.00 | 0.00 | 0.00 | 71 | 1003.4 |
| 20260506012256 | 22 | 30 | 0.0 | 1.6 | 0.00 | 0.00 | 0.00 | 71 | 1003.5 |
| 20260506011753 | 22 | 339 | 4.8 | 8.0 | 0.00 | 0.00 | 0.00 | 70 | 1003.2 |
| 20260506011249 | 22 | 9 | 4.8 | 4.8 | 0.00 | 0.00 | 0.00 | 69 | 1002.9 |
| 20260506010748 | 22 | 33 | 3.2 | 3.2 | 0.00 | 0.00 | 0.00 | 69 | 1002.8 |
| 20260506010245 | 23 | 47 | 1.6 | 1.6 | 0.00 | 0.00 | 0.00 | 70 | 1002.8 |
| 20260506005742 | 23 | 31 | 1.6 | 3.2 | 0.00 | 0.00 | 0.00 | 70 | 1002.4 |
| 20260506005239 | 23 | 6 | 1.6 | 1.6 | 0.00 | 0.00 | 0.00 | 70 | 1002.2 |
| 20260506004734 | 23 | 21 | 3.2 | 4.8 | 0.00 | 0.00 | 0.00 | 69 | 1002.2 |
| 20260506004232 | 23 | 30 | 1.6 | 3.2 | 0.00 | 0.00 | 0.00 | 69 | 1002.6 |
| 20260506003728 | 23 | 348 | 3.2 | 3.2 | 0.00 | 0.00 | 0.00 | 69 | 1002.5 |
| 20260506003225 | 23 | 9 | 3.2 | 3.2 | 0.00 | 0.00 | 0.00 | 68 | 1002.5 |
| 20260506002721 | 23 | 6 | 3.2 | 3.2 | 0.00 | 0.00 | 0.00 | 69 | 1002.5 |
| 20260506002217 | 24 | 339 | 4.8 | 4.8 | 0.00 | 0.00 | 0.00 | 68 | 1002.4 |
| 20260506001713 | 25 | 338 | 1.6 | 3.2 | 0.00 | 0.00 | 0.00 | 68 | 1002.4 |
| 20260506001211 | 25 | 329 | 4.8 | 9.7 | 0.00 | 0.00 | 0.00 | 67 | 1002.1 |
| 20260506000707 | 25 | 39 | 4.8 | 9.7 | 0.00 | 0.00 | 0.00 | 66 | 1002.1 |
| 20260506000205 | 25 | 9 | 6.4 | 9.7 | 0.00 | 0.00 | 0.00 | 65 | 1002.1 |
| 20260505235703 | 25 | 330 | 1.6 | 3.2 | 0.00 | 0.00 | 0.00 | 65 | 1001.7 |
| 20260505235200 | 26 | 355 | 8.0 | 14.5 | 0.00 | 0.00 | 0.00 | 65 | 1001.7 |
| 20260505234657 | 26 | 352 | 1.6 | 3.2 | 0.00 | 0.00 | 0.00 | 64 | 1001.7 |
| 20260505234154 | 26 | 325 | 4.8 | 9.7 | 0.00 | 0.00 | 0.00 | 64 | 1001.6 |
| 20260505233650 | 27 | 35 | 3.2 | 4.8 | 0.00 | 0.00 | 0.00 | 62 | 1001.9 |
| 20260505233148 | 27 | 309 | 6.4 | 8.0 | 0.00 | 0.00 | 0.00 | 61 | 1001.8 |
| 20260505232646 | 27 | 24 | 1.6 | 4.8 | 0.00 | 0.00 | 0.00 | 61 | 1001.7 |
| 20260505232143 | 28 | 358 | 6.4 | 9.7 | 0.00 | 0.00 | 0.00 | 59 | 1001.5 |
| 20260505231639 | 28 | 27 | 3.2 | 3.2 | 0.00 | 0.00 | 0.00 | 55 | 1001.4 |
| 20260505231139 | 28 | 355 | 3.2 | 4.8 | 0.00 | 0.00 | 0.00 | 53 | 1001.4 |
| 20260505230636 | 29 | 15 | 3.2 | 4.8 | 0.00 | 0.00 | 0.00 | 51 | 1001.1 |
| 20260505230132 | 30 | 12 | 4.8 | 8.0 | 0.00 | 0.00 | 0.00 | 51 | 1001.2 |
| 20260505225629 | 30 | 41 | 4.8 | 4.8 | 0.00 | 0.00 | 0.00 | 50 | 1000.9 |
| 20260505225125 | 30 | 353 | 3.2 | 4.8 | 0.00 | 0.00 | 0.00 | 48 | 1000.9 |
| 20260505224622 | 31 | 8 | 1.6 | 1.6 | 0.00 | 0.00 | 0.00 | 47 | 1001.0 |
| 20260505224119 | 31 | 248 | 1.6 | 3.2 | 0.00 | 0.00 | 0.00 | 52 | 1000.9 |
| 20260505223616 | 31 | 226 | 3.2 | 3.2 | 0.00 | 0.00 | 0.00 | 53 | 1000.8 |
| 20260505223112 | 31 | 167 | 4.8 | 8.0 | 0.00 | 0.00 | 0.00 | 52 | 1000.6 |
| 20260505222609 | 32 | 225 | 1.6 | 1.6 | 0.00 | 0.00 | 0.00 | 53 | 1000.6 |
| 20260505222105 | 31 | 165 | 1.6 | 1.6 | 0.00 | 0.00 | 0.00 | 53 | 1000.4 |
| 20260505221602 | 31 | 177 | 1.6 | 1.6 | 0.00 | 0.00 | 0.00 | 52 | 1000.5 |
| 20260505221058 | 32 | 202 | 6.4 | 8.0 | 0.00 | 0.00 | 0.00 | 52 | 1000.3 |
| 20260505220556 | 32 | 141 | 14.5 | 17.7 | 0.00 | 0.00 | 0.00 | 53 | 1000.1 |
| 20260505220054 | 32 | 190 | 0.0 | 1.6 | 0.00 | 0.00 | 0.00 | 53 | 1000.5 |
| 20260505215552 | 32 | 329 | 1.6 | 1.6 | 0.00 | 0.00 | 0.00 | 51 | 1000.6 |
| 20260505215049 | 32 | 241 | 4.8 | 4.8 | 0.00 | 0.00 | 0.00 | 51 | 1000.6 |
| 20260505214547 | 32 | 245 | 8.0 | 11.3 | 0.00 | 0.00 | 0.00 | 51 | 1000.6 |
| 20260505214044 | 32 | 235 | 11.3 | 14.5 | 0.00 | 0.00 | 0.00 | 51 | 1000.6 |
| 20260505213542 | 31 | 320 | 0.0 | 0.0 | 0.00 | 0.00 | 0.00 | 54 | 1000.5 |
| 20260505213037 | 31 | 126 | 3.2 | 4.8 | 0.00 | 0.00 | 0.00 | 54 | 1000.5 |
| 20260505212534 | 32 | 264 | 8.0 | 9.7 | 0.00 | 0.00 | 0.00 | 53 | 1000.8 |
| 20260505212032 | 32 | 213 | 8.0 | 11.3 | 0.00 | 0.00 | 0.00 | 52 | 1000.9 |
| 20260505211529 | 31 | 197 | 4.8 | 8.0 | 0.00 | 0.00 | 0.00 | 55 | 1000.8 |
| 20260505211025 | 31 | 107 | 6.4 | 9.7 | 0.00 | 0.00 | 0.00 | 55 | 1001.1 |
| 20260505210522 | 32 | 245 | 12.9 | 16.1 | 0.00 | 0.00 | 0.00 | 52 | 1001.0 |
| 20260505210019 | 32 | 179 | 12.9 | 16.1 | 0.00 | 0.00 | 0.00 | 53 | 1000.9 |
| 20260505205517 | 31 | 238 | 8.0 | 11.3 | 0.00 | 0.00 | 0.00 | 57 | 1001.0 |
| 20260505205014 | 31 | 243 | 11.3 | 16.1 | 0.00 | 0.00 | 0.00 | 56 | 1001.2 |
| 20260505204512 | 30 | 272 | 3.2 | 4.8 | 0.00 | 0.00 | 0.00 | 61 | 1001.2 |
| 20260505204009 | 30 | 260 | 6.4 | 11.3 | 0.00 | 0.00 | 0.00 | 60 | 1001.0 |
| 20260505203505 | 31 | 179 | 9.7 | 14.5 | 0.00 | 0.00 | 0.00 | 60 | 1001.4 |
| 20260505203001 | 31 | 245 | 4.8 | 8.0 | 0.00 | 0.00 | 0.00 | 59 | 1001.5 |
| 20260505202458 | 31 | 189 | 9.7 | 12.9 | 0.00 | 0.00 | 0.00 | 59 | 1001.3 |
| 20260505201954 | 31 | 181 | 11.3 | 14.5 | 0.00 | 0.00 | 0.00 | 59 | 1001.4 |
| 20260505201451 | 30 | 180 | 6.4 | 9.7 | 0.00 | 0.00 | 0.00 | 62 | 1001.4 |
| 20260505200949 | 30 | 227 | 6.4 | 9.7 | 0.00 | 0.00 | 0.00 | 62 | 1001.5 |
| 20260505200447 | 30 | 198 | 8.0 | 11.3 | 0.00 | 0.00 | 0.00 | 63 | 1001.3 |
| 20260505195942 | 30 | 163 | 8.0 | 11.3 | 0.00 | 0.00 | 0.00 | 62 | 1001.3 |
| 20260505195439 | 30 | 263 | 4.8 | 8.0 | 0.00 | 0.00 | 0.00 | 62 | 1001.5 |
| 20260505194937 | 30 | 202 | 11.3 | 14.5 | 0.00 | 0.00 | 0.00 | 62 | 1001.7 |
| 20260505194434 | 30 | 194 | 8.0 | 11.3 | 0.00 | 0.00 | 0.00 | 62 | 1001.4 |
| 20260505193934 | 29 | 196 | 4.8 | 8.0 | 0.00 | 0.00 | 0.00 | 64 | 1001.7 |
| 20260505193432 | 29 | 203 | 6.4 | 9.7 | 0.00 | 0.00 | 0.00 | 63 | 1001.7 |
| 20260505192929 | 30 | 231 | 14.5 | 16.1 | 0.00 | 0.00 | 0.00 | 63 | 1001.7 |
| 20260505192428 | 30 | 225 | 6.4 | 9.7 | 0.00 | 0.00 | 0.00 | 63 | 1001.8 |
| 20260505191925 | 30 | 172 | 8.0 | 11.3 | 0.00 | 0.00 | 0.00 | 64 | 1001.7 |
| 20260505191424 | 29 | 309 | 6.4 | 11.3 | 0.00 | 0.00 | 0.00 | 65 | 1001.6 |
| 20260505190920 | 29 | 241 | 6.4 | 9.7 | 0.00 | 0.00 | 0.00 | 66 | 1001.7 |
| 20260505190415 | 28 | 197 | 11.3 | 14.5 | 0.00 | 0.00 | 0.00 | 66 | 1001.6 |
| 20260505185910 | 28 | 216 | 4.8 | 8.0 | 0.00 | 0.00 | 0.00 | 66 | 1001.8 |
| 20260505185408 | 28 | 186 | 11.3 | 14.5 | 0.00 | 0.00 | 0.00 | 67 | 1001.4 |
| 20260505184904 | 28 | 220 | 6.4 | 8.0 | 0.00 | 0.00 | 0.00 | 68 | 1001.9 |
| 20260505184401 | 28 | 184 | 6.4 | 9.7 | 0.00 | 0.00 | 0.00 | 68 | 1001.6 |
| 20260505183858 | 28 | 222 | 9.7 | 12.9 | 0.00 | 0.00 | 0.00 | 68 | 1001.8 |
| 20260505183354 | 28 | 232 | 8.0 | 11.3 | 0.00 | 0.00 | 0.00 | 67 | 1001.8 |
| 20260505182851 | 28 | 182 | 11.3 | 16.1 | 0.00 | 0.00 | 0.00 | 68 | 1001.8 |
| 20260505182348 | 28 | 204 | 8.0 | 11.3 | 0.00 | 0.00 | 0.00 | 68 | 1001.7 |
| 20260505181845 | 28 | 200 | 9.7 | 12.9 | 0.00 | 0.00 | 0.00 | 68 | 1001.7 |
| 20260505181342 | 28 | 238 | 8.0 | 9.7 | 0.00 | 0.00 | 0.00 | 67 | 1002.0 |
| 20260505180839 | 28 | 230 | 4.8 | 4.8 | 0.00 | 0.00 | 0.00 | 68 | 1001.8 |
| 20260505180335 | 27 | 167 | 4.8 | 8.0 | 0.00 | 0.00 | 0.00 | 70 | 1001.9 |
| 20260505175832 | 27 | 182 | 12.9 | 16.1 | 0.00 | 0.00 | 0.00 | 69 | 1001.8 |
| 20260505175328 | 27 | 202 | 8.0 | 11.3 | 0.00 | 0.00 | 0.00 | 69 | 1001.7 |
| 20260505174825 | 27 | 209 | 6.4 | 8.0 | 0.00 | 0.00 | 0.00 | 70 | 1001.8 |
| 20260505174322 | 27 | 226 | 11.3 | 14.5 | 0.00 | 0.00 | 0.00 | 71 | 1002.0 |
| 20260505173818 | 27 | 193 | 9.7 | 14.5 | 0.00 | 0.00 | 0.00 | 71 | 1001.9 |
| 20260505173315 | 27 | 211 | 17.7 | 20.9 | 0.00 | 0.00 | 0.00 | 70 | 1002.0 |
| 20260505172812 | 26 | 244 | 6.4 | 8.0 | 0.00 | 0.00 | 0.00 | 72 | 1001.8 |
| 20260505172310 | 26 | 215 | 16.1 | 17.7 | 0.00 | 0.00 | 0.00 | 71 | 1002.0 |
| 20260505171804 | 27 | 270 | 11.3 | 12.9 | 0.00 | 0.00 | 0.00 | 71 | 1002.1 |
| 20260505171301 | 26 | 189 | 16.1 | 22.5 | 0.00 | 0.00 | 0.00 | 73 | 1002.2 |
| 20260505170757 | 26 | 202 | 8.0 | 12.9 | 0.00 | 0.00 | 0.00 | 73 | 1002.0 |
| 20260505170255 | 26 | 238 | 8.0 | 11.3 | 0.00 | 0.00 | 0.00 | 73 | 1001.9 |
| 20260505165749 | 26 | 189 | 6.4 | 11.3 | 0.00 | 0.00 | 0.00 | 72 | 1002.2 |
| 20260505165246 | 26 | 161 | 6.4 | 8.0 | 0.00 | 0.00 | 0.00 | 73 | 1001.9 |
| 20260505164741 | 26 | 216 | 6.4 | 9.7 | 0.00 | 0.00 | 0.00 | 73 | 1001.9 |
| 20260505164239 | 26 | 175 | 8.0 | 9.7 | 0.00 | 0.00 | 0.00 | 73 | 1001.9 |
| 20260505163737 | 25 | 162 | 9.7 | 12.9 | 0.00 | 0.00 | 0.00 | 74 | 1002.0 |
| 20260505163235 | 26 | 215 | 14.5 | 22.5 | 0.00 | 0.00 | 0.00 | 74 | 1001.8 |
| 20260505162732 | 25 | 175 | 9.7 | 12.9 | 0.00 | 0.00 | 0.00 | 74 | 1001.9 |
| 20260505162229 | 25 | 200 | 16.1 | 20.9 | 0.00 | 0.00 | 0.00 | 74 | 1001.7 |
| 20260505161726 | 25 | 136 | 3.2 | 4.8 | 0.00 | 0.00 | 0.00 | 74 | 1001.9 |
| 20260505161224 | 25 | 194 | 6.4 | 11.3 | 0.00 | 0.00 | 0.00 | 75 | 1001.9 |
| 20260505160721 | 25 | 200 | 19.3 | 27.4 | 0.00 | 0.00 | 0.00 | 75 | 1001.6 |
| 20260505160218 | 25 | 223 | 8.0 | 9.7 | 0.00 | 0.00 | 0.00 | 75 | 1001.8 |
| 20260505153157 | 25 | 228 | 14.5 | 16.1 | 0.00 | 0.00 | 0.00 | 77 | 1001.4 |
| 20260505152654 | 25 | 202 | 14.5 | 22.5 | 0.00 | 0.00 | 0.00 | 76 | 1001.6 |
| 20260505152150 | 24 | 226 | 14.5 | 22.5 | 0.00 | 0.00 | 0.00 | 78 | 1001.6 |
| 20260505151645 | 24 | 197 | 17.7 | 24.1 | 0.00 | 0.00 | 0.00 | 77 | 1001.6 |
| 20260505151143 | 24 | 229 | 9.7 | 14.5 | 0.00 | 0.00 | 0.00 | 78 | 1001.7 |
| 20260505150639 | 24 | 193 | 9.7 | 12.9 | 0.00 | 0.00 | 0.00 | 79 | 1001.6 |
| 20260505150136 | 24 | 190 | 9.7 | 12.9 | 0.00 | 0.00 | 0.00 | 79 | 1001.6 |
| 20260505140605 | 22 | 198 | 8.0 | 9.7 | 0.00 | 0.00 | 0.00 | 83 | 1001.3 |
| 20260505125018 | 22 | 191 | 6.4 | 9.7 | 0.00 | 0.00 | 0.00 | 85 | 1000.6 |
| 20260505124515 | 22 | 238 | 8.0 | 11.3 | 0.00 | 0.00 | 0.00 | 85 | 1000.5 |
| 20260505124011 | 22 | 195 | 11.3 | 11.3 | 0.00 | 0.00 | 0.00 | 85 | 1000.6 |
| 20260505123508 | 22 | 205 | 3.2 | 4.8 | 0.00 | 0.00 | 0.00 | 85 | 1000.6 |
| 20260505123004 | 21 | 209 | 8.0 | 12.9 | 0.00 | 0.00 | 0.00 | 85 | 1000.3 |
| 20260505122501 | 21 | 189 | 4.8 | 4.8 | 0.00 | 0.00 | 0.00 | 85 | 1000.2 |
| 20260505121958 | 22 | 251 | 9.7 | 14.5 | 0.00 | 0.00 | 0.00 | 85 | 1000.0 |
| 20260505121454 | 22 | 197 | 9.7 | 12.9 | 0.00 | 0.00 | 0.00 | 85 | 1000.2 |
| 20260505120950 | 22 | 148 | 4.8 | 4.8 | 0.00 | 0.00 | 0.00 | 85 | 1000.2 |
| 20260505120447 | 22 | 158 | 6.4 | 9.7 | 0.00 | 0.00 | 0.00 | 85 | 1000.1 |
| 20260505115946 | 22 | 183 | 9.7 | 11.3 | 0.00 | 0.00 | 0.00 | 85 | 999.8 |
| 20260505115443 | 22 | 220 | 3.2 | 3.2 | 0.00 | 0.00 | 0.00 | 84 | 1000.2 |
| 20260505114941 | 22 | 184 | 14.5 | 24.1 | 0.00 | 0.00 | 0.00 | 84 | 999.7 |
| 20260505114432 | 22 | 184 | 12.9 | 16.1 | 0.00 | 0.00 | 0.00 | 85 | 999.9 |
| 20260505113928 | 22 | 193 | 8.0 | 12.9 | 0.00 | 0.00 | 0.00 | 85 | 1000.0 |
| 20260505113425 | 22 | 212 | 11.3 | 14.5 | 0.00 | 0.00 | 0.00 | 85 | 999.8 |
| 20260505112921 | 22 | 238 | 12.9 | 14.5 | 0.00 | 0.00 | 0.00 | 84 | 1000.2 |
| 20260505112419 | 22 | 219 | 14.5 | 20.9 | 0.00 | 0.00 | 0.00 | 84 | 999.7 |
| 20260505111914 | 22 | 215 | 14.5 | 17.7 | 0.00 | 0.00 | 0.00 | 84 | 999.8 |
| 20260505111415 | 22 | 219 | 12.9 | 24.1 | 0.00 | 0.00 | 0.00 | 83 | 999.7 |
| 20260505110911 | 22 | 244 | 8.0 | 11.3 | 0.00 | 0.00 | 0.00 | 84 | 1000.2 |
| 20260505110408 | 22 | 220 | 8.0 | 9.7 | 0.00 | 0.00 | 0.00 | 84 | 1000.0 |
| 20260505101838 | 21 | 150 | 4.8 | 8.0 | 0.00 | 0.00 | 0.00 | 85 | 1000.0 |
| 20260505101334 | 21 | 269 | 9.7 | 12.9 | 0.00 | 0.00 | 0.00 | 85 | 1000.0 |
| 20260505100830 | 21 | 240 | 4.8 | 8.0 | 0.00 | 0.00 | 0.00 | 85 | 999.6 |
| 20260505100327 | 21 | 169 | 8.0 | 12.9 | 0.00 | 0.00 | 0.00 | 85 | 999.8 |
| 20260505095822 | 21 | 222 | 8.0 | 12.9 | 0.00 | 0.00 | 0.00 | 85 | 999.9 |
| 20260505095320 | 21 | 236 | 6.4 | 9.7 | 0.00 | 0.00 | 0.00 | 85 | 999.6 |
| 20260505094816 | 21 | 191 | 11.3 | 14.5 | 0.00 | 0.00 | 0.00 | 85 | 1000.3 |
| 20260505094313 | 21 | 169 | 9.7 | 11.3 | 0.00 | 0.00 | 0.00 | 85 | 1000.2 |
| 20260505093808 | 21 | 237 | 4.8 | 4.8 | 0.00 | 0.00 | 0.00 | 85 | 1000.3 |
| 20260505093307 | 21 | 196 | 6.4 | 11.3 | 0.00 | 0.00 | 0.00 | 85 | 1000.3 |
| 20260505092803 | 21 | 203 | 9.7 | 12.9 | 0.00 | 0.00 | 0.00 | 85 | 1000.1 |